Wind_Speed
43 42 42 43 44 44 42 42 42 44 47 49 48 47 45 44 43 41 40 39 38 37 37 37 36 36 36 36 36 37 37 37 35 34 32 32 32 31 31 31 30 30
44 43 44 46 46 45 43 42 41 42 44 48 50 51 51 49 48 45 44 43 42 40 38 36 36 36 37 37 37 37 38 38 38 38 36 35 34 34 34 34 33 32
50 51 53 54 54 51 48 45 43 42 43 46 48 50 51 52 52 50 48 46 45 43 40 38 37 37 38 38 38 38 38 38 39 40 40 39 37 37 37 37 36 36
53 54 56 57 58 59 58 53 48 44 42 43 46 47 48 50 52 52 51 50 50 48 45 43 42 41 41 41 40 40 39 39 39 40 41 41 41 40 40 40 40 39
51 52 53 53 55 59 62 59 54 48 44 44 45 47 48 49 51 53 54 54 54 54 52 50 49 48 47 46 45 43 42 41 41 41 41 42 43 44 43 43 43 43
49 49 48 47 49 54 58 58 55 53 51 49 49 50 50 51 53 54 55 56 56 56 56 55 54 53 52 51 49 47 45 44 43 43 43 43 44 45 46 46 46 46
51 51 51 49 50 53 56 57 57 57 57 55 53 53 53 54 54 55 56 56 57 57 56 56 56 56 56 54 53 51 48 46 45 44 44 45 45 45 46 48 48 48
57 57 57 57 56 57 58 59 60 61 60 59 57 56 56 57 58 58 58 58 58 58 59 59 58 58 57 57 56 55 53 50 48 47 46 46 46 47 47 48 49 50
61 61 61 60 60 60 60 61 62 63 62 61 61 61 61 61 60 60 60 61 61 61 61 61 61 60 59 59 59 58 57 56 54 52 50 48 47 48 49 49 49 50
61 62 63 63 63 63 63 62 62 63 64 64 64 65 64 62 60 59 59 60 61 62 62 61 61 61 60 59 59 60 60 59 59 58 56 54 52 50 50 50 51 51
58 59 60 62 63 63 62 60 60 62 64 63 62 64 64 61 59 58 58 60 62 61 60 60 59 57 56 56 56 58 59 60 60 59 59 58 57 56 56 55 55 55
55 55 56 58 59 60 59 57 57 59 60 60 59 59 60 58 56 55 51 50 54 56 54 53 51 51 51 51 52 54 55 56 56 56 56 57 58 60 60 60 60 60
52 52 53 53 53 55 55 53 53 54 55 56 57 57 56 55 54 54 48 42 44 49 51 50 46 47 49 50 51 53 54 56 57 58 59 59 59 60 60 60 61 61
51 51 53 51 49 51 52 51 51 52 52 53 55 55 56 54 52 53 53 49 45 46 54 58 54 52 53 53 54 56 58 60 61 62 62 61 60 59 58 59 59 60
53 53 54 54 52 51 51 53 55 56 55 55 56 56 56 55 53 51 52 53 49 49 58 66 64 60 59 59 59 59 60 60 60 60 60 59 58 58 58 58 59 59
56 57 57 56 54 51 50 52 57 60 60 60 60 59 57 57 56 54 53 52 52 56 64 68 67 66 66 65 64 62 61 60 59 59 59 58 58 58 58 59 59 59
58 58 58 58 57 54 52 55 60 63 64 63 63 62 61 59 58 56 56 56 56 60 64 66 67 70 72 71 68 65 64 62 61 60 59 59 58 58 59 60 60 59
59 59 59 59 59 58 57 60 65 66 66 66 65 65 64 61 59 58 59 61 62 65 67 69 72 74 74 73 70 68 66 65 63 63 62 61 60 59 59 60 61 60
61 61 61 61 61 62 62 63 66 68 69 69 69 69 68 66 65 65 66 68 70 72 74 75 76 76 75 73 71 69 68 66 65 64 63 63 62 62 61 61 62 62
63 63 64 63 64 64 65 66 68 69 70 71 73 74 75 75 75 75 76 76 77 77 78 78 77 76 74 73 71 69 68 66 66 65 65 65 64 64 64 64 64 64
65 66 66 66 67 67 68 69 69 70 71 72 73 75 77 78 78 78 78 78 78 77 77 77 76 75 74 72 71 69 67 66 66 66 66 66 66 66 67 67 67 68
66 67 67 68 68 69 69 69 70 71 72 73 73 74 75 76 76 76 76 76 75 75 75 75 74 73 73 72 70 69 68 67 67 67 67 67 67 68 68 69 69 70
64 65 66 67 67 68 68 68 68 70 71 72 72 73 73 73 73 74 74 75 74 74 73 73 73 73 72 72 71 70 69 68 68 67 67 68 68 69 70 70 71 72
62 63 64 64 64 65 65 66 67 68 69 70 70 71 71 71 71 72 72 72 73 72 72 73 73 72 72 72 71 71 70 70 69 69 69 69 70 71 72 73 73 74
62 62 63 63 63 63 64 66 67 68 69 69 70 70 70 70 70 70 69 69 70 70 71 71 72 72 72 72 73 72 72 71 70 71 71 72 73 74 75 75 76 76
62 62 62 63 63 63 64 66 68 69 70 70 70 70 70 69 69 68 67 67 68 69 70 71 72 73 74 74 74 74 73 73 73 73 73 74 75 76 77 77 78 78
Wind_Direction
274 275 276 276 275 274 274 272 270 269 267 265 264 264 266 268 271 275 280 284 286 286 286 285 284 283 283 282 280 278 277 276 276 276 275 275 274 273 272 271 271 270
268 267 270 275 276 274 272 270 269 269 268 267 266 265 265 265 267 270 274 279 283 284 284 284 283 283 281 280 278 277 275 274 273 273 273 272 271 271 271 271 271 271
264 263 266 271 275 275 272 271 272 271 270 269 268 267 266 265 265 267 270 275 278 280 280 280 281 281 282 280 277 276 275 273 272 271 271 270 270 269 269 269 270 270
263 263 263 266 271 275 274 273 274 272 271 271 270 269 267 266 265 266 268 270 273 274 275 277 278 279 280 280 278 276 274 273 272 271 269 268 268 267 267 267 267 268
265 266 267 267 269 273 275 276 276 273 271 272 271 270 269 268 267 266 266 268 270 272 274 276 278 279 278 278 278 278 276 273 271 270 269 267 265 265 264 264 264 265
265 266 267 268 268 271 274 277 277 275 274 274 273 272 272 272 270 268 267 268 269 272 274 276 278 278 278 278 278 278 277 275 272 270 268 267 266 264 263 263 262 262
261 262 262 264 266 268 270 272 274 274 275 275 274 273 273 274 273 270 269 269 270 271 273 275 277 277 277 277 277 276 275 274 273 272 269 267 266 266 264 263 263 262
257 258 259 260 262 264 265 267 270 272 274 273 272 272 273 275 275 273 271 269 269 270 271 273 274 274 275 275 275 274 274 272 273 273 271 268 266 265 265 264 263 263
254 255 257 258 260 262 264 267 269 271 273 272 272 273 274 274 274 272 271 269 269 269 270 271 272 273 272 272 272 272 272 272 272 273 273 271 268 266 264 264 264 263
254 255 257 258 260 262 265 268 270 271 271 272 274 275 274 273 272 270 269 268 268 268 268 268 269 270 271 271 270 269 269 270 271 272 272 271 270 268 266 265 265 264
255 256 258 259 261 263 265 268 269 270 271 271 273 274 274 275 275 275 273 271 269 267 267 268 267 267 269 270 270 270 269 269 270 271 270 269 268 268 267 266 266 266
256 257 259 260 263 264 263 265 267 268 269 270 271 272 274 276 277 278 280 281 278 274 270 268 267 266 267 269 271 272 272 270 270 270 271 271 270 269 268 267 267 266
257 258 259 260 263 265 265 265 265 266 268 269 269 269 270 274 276 276 277 277 279 280 275 269 267 268 269 269 270 271 271 271 272 273 274 275 274 272 271 269 268 267
257 256 257 258 260 263 264 263 262 263 265 266 265 263 264 267 271 272 271 267 265 269 272 272 273 274 273 273 271 270 271 271 273 275 275 275 274 273 272 270 269 267
255 254 255 256 258 260 260 259 259 259 260 261 262 260 258 259 261 264 266 263 256 255 262 270 275 277 278 277 276 274 273 273 273 273 273 273 273 272 271 270 269 268
253 252 253 254 256 258 256 255 257 258 258 259 260 261 259 258 259 260 260 258 253 252 259 267 273 277 279 279 278 277 276 275 273 272 271 271 270 270 269 268 268 267
253 253 254 255 256 256 252 248 251 256 258 259 260 261 261 259 258 257 255 254 254 256 260 265 270 274 277 278 278 277 277 276 275 274 272 270 269 268 267 267 266 266
255 255 256 256 256 256 253 248 249 253 256 256 257 259 260 259 257 255 254 255 256 259 262 265 268 272 274 275 275 276 275 275 275 274 273 272 271 269 268 268 267 266
257 257 257 257 257 257 256 253 253 253 253 253 254 256 257 257 257 258 259 259 260 262 264 266 267 270 271 272 273 274 274 274 274 274 273 273 272 272 270 269 268 268
257 257 257 258 257 257 257 257 256 256 256 254 254 254 255 256 257 259 261 262 262 263 264 265 267 268 269 270 271 271 272 273 273 273 273 273 273 273 272 272 271 270
256 257 257 257 257 257 257 257 257 258 257 257 256 256 256 257 259 260 261 262 262 263 264 265 266 266 267 268 268 269 270 270 271 272 272 273 273 273 273 273 272 272
257 257 258 258 257 257 257 257 258 258 258 258 258 258 258 259 260 261 262 263 263 264 264 265 265 266 266 267 267 268 268 269 269 270 271 271 272 272 272 272 272 272
258 258 258 258 258 259 259 259 259 259 259 259 259 259 260 260 260 261 263 263 264 264 265 265 265 265 266 267 267 268 269 269 270 270 270 270 271 271 271 271 271 272
259 259 259 259 259 259 259 259 259 258 258 258 259 259 260 260 260 261 262 262 263 263 263 264 264 264 265 266 268 269 269 270 270 270 270 270 270 270 271 271 271 271
260 259 259 259 258 258 257 257 257 258 258 258 258 259 259 260 260 261 261 261 261 261 261 262 262 263 264 266 268 268 269 269 269 270 270 271 271 271 271 272 272 271
261 260 259 258 258 257 257 257 257 257 258 259 259 260 261 261 261 262 262 261 261 260 260 261 262 263 264 266 267 268 269 269 270 270 270 271 271 271 272 272 272 272
Height
10567 10566 10565 10563 10562 10563 10565 10567 10569 10571 10571 10572 10573 10574 10575 10576 10576 10576 10576 10576 10576 10575 10575 10575 10575 10575 10575 10575 10575 10575 10574 10574 10575 10576 10576 10577 10577 10578 10579 10579 10580 10581
10561 10561 10560 10559 10559 10558 10559 10561 10564 10566 10566 10566 10567 10568 10570 10571 10571 10571 10571 10571 10571 10571 10571 10571 10570 10570 10571 10571 10570 10570 10570 10570 10570 10571 10571 10572 10573 10573 10574 10575 10576 10577
10554 10554 10554 10554 10554 10552 10553 10556 10559 10560 10561 10560 10561 10563 10564 10565 10566 10566 10566 10566 10566 10566 10566 10566 10566 10565 10565 10566 10565 10566 10566 10566 10566 10567 10567 10568 10568 10569 10569 10570 10571 10572
10546 10547 10549 10550 10550 10546 10545 10549 10553 10554 10555 10555 10556 10557 10558 10559 10559 10559 10560 10560 10561 10561 10561 10561 10561 10561 10561 10561 10561 10561 10561 10562 10562 10562 10563 10563 10563 10564 10565 10565 10566 10567
10542 10542 10543 10545 10545 10541 10537 10540 10545 10547 10548 10550 10550 10551 10551 10552 10552 10553 10553 10554 10555 10556 10556 10556 10556 10556 10556 10556 10557 10557 10557 10557 10557 10557 10557 10558 10558 10559 10559 10560 10561 10562
10536 10536 10537 10537 10538 10536 10533 10533 10537 10539 10540 10542 10544 10544 10544 10544 10544 10546 10547 10548 10550 10550 10550 10550 10549 10549 10550 10551 10552 10552 10553 10552 10552 10552 10552 10552 10553 10553 10554 10554 10555 10556
10530 10530 10530 10531 10531 10530 10529 10528 10530 10531 10533 10535 10536 10537 10537 10537 10536 10538 10540 10542 10543 10544 10544 10543 10543 10543 10543 10544 10546 10546 10547 10547 10547 10547 10547 10547 10547 10547 10548 10548 10549 10550
10524 10524 10524 10525 10525 10524 10523 10523 10523 10525 10526 10528 10529 10530 10530 10531 10531 10531 10532 10534 10535 10536 10536 10535 10535 10536 10537 10537 10538 10539 10540 10540 10541 10542 10542 10542 10542 10542 10542 10542 10543 10543
10517 10517 10517 10518 10519 10518 10517 10517 10517 10518 10519 10519 10520 10521 10523 10524 10524 10525 10525 10525 10527 10527 10527 10527 10527 10528 10529 10530 10531 10532 10532 10533 10534 10535 10535 10536 10536 10536 10536 10536 10537 10537
10510 10510 10510 10512 10512 10511 10511 10511 10511 10510 10510 10511 10511 10511 10513 10515 10516 10517 10518 10518 10518 10519 10519 10520 10520 10520 10521 10522 10523 10524 10524 10525 10526 10527 10528 10528 10529 10529 10529 10530 10530 10531
10505 10505 10505 10505 10504 10503 10504 10505 10505 10502 10501 10503 10504 10501 10502 10504 10505 10506 10508 10509 10510 10511 10512 10512 10513 10513 10513 10514 10515 10516 10516 10517 10518 10519 10519 10520 10520 10521 10521 10522 10523 10523
10500 10501 10500 10499 10497 10496 10498 10500 10499 10497 10495 10496 10497 10495 10494 10495 10496 10497 10498 10497 10496 10499 10502 10504 10505 10505 10506 10507 10508 10508 10508 10509 10510 10511 10511 10512 10512 10512 10512 10513 10514 10515
10495 10494 10494 10494 10493 10491 10493 10494 10492 10491 10490 10490 10491 10490 10489 10489 10489 10490 10493 10492 10489 10487 10490 10494 10497 10498 10499 10501 10502 10502 10501 10501 10502 10502 10503 10503 10504 10503 10503 10504 10505 10505
10488 10488 10487 10489 10489 10488 10488 10488 10486 10486 10486 10485 10485 10485 10485 10486 10484 10483 10486 10488 10486 10482 10479 10482 10488 10490 10492 10493 10494 10495 10495 10494 10495 10495 10494 10495 10496 10496 10495 10495 10495 10496
10482 10482 10481 10483 10484 10484 10483 10481 10479 10480 10481 10480 10479 10479 10480 10480 10479 10478 10478 10479 10480 10478 10473 10472 10476 10479 10481 10484 10485 10486 10486 10487 10488 10488 10488 10488 10488 10488 10488 10487 10487 10488
10474 10474 10475 10476 10478 10479 10479 10477 10471 10470 10472 10473 10472 10473 10473 10473 10474 10473 10472 10472 10473 10471 10468 10467 10468 10469 10471 10472 10474 10476 10478 10479 10480 10481 10481 10481 10481 10481 10480 10479 10479 10480
10466 10467 10468 10470 10471 10472 10473 10471 10465 10461 10464 10465 10465 10465 10465 10465 10467 10467 10465 10465 10465 10464 10462 10462 10462 10461 10462 10463 10464 10467 10469 10471 10472 10472 10473 10473 10473 10474 10472 10471 10471 10473
10457 10459 10460 10462 10463 10464 10465 10464 10459 10457 10458 10458 10459 10459 10458 10458 10458 10458 10458 10458 10458 10457 10456 10456 10456 10455 10456 10456 10457 10460 10462 10463 10463 10463 10463 10463 10464 10465 10465 10464 10463 10465
10449 10450 10451 10453 10454 10455 10455 10455 10453 10452 10451 10451 10452 10451 10451 10451 10451 10451 10451 10451 10450 10450 10449 10449 10449 10449 10450 10451 10451 10453 10454 10455 10455 10454 10454 10455 10455 10455 10456 10456 10455 10456
10441 10441 10442 10443 10444 10445 10445 10445 10444 10443 10443 10444 10444 10443 10443 10444 10444 10444 10444 10444 10443 10443 10442 10442 10443 10444 10445 10445 10446 10447 10447 10447 10447 10447 10447 10446 10446 10446 10446 10447 10447 10447
10432 10433 10434 10434 10435 10435 10435 10435 10435 10435 10435 10435 10435 10435 10435 10435 10436 10436 10436 10436 10436 10436 10436 10436 10437 10437 10438 10438 10439 10440 10440 10441 10440 10440 10439 10439 10438 10438 10438 10437 10437 10437
10423 10424 10424 10424 10424 10425 10425 10426 10426 10426 10426 10426 10425 10426 10426 10427 10428 10428 10427 10427 10428 10428 10429 10428 10429 10430 10430 10430 10430 10431 10432 10433 10433 10433 10432 10432 10431 10430 10429 10428 10428 10427
10412 10413 10414 10414 10414 10415 10415 10417 10418 10418 10417 10417 10416 10417 10418 10419 10419 10419 10419 10419 10419 10420 10420 10420 10420 10421 10421 10421 10422 10423 10423 10424 10424 10424 10424 10424 10423 10422 10421 10420 10419 10419
10401 10402 10402 10403 10403 10404 10405 10406 10406 10406 10407 10407 10407 10408 10408 10409 10410 10410 10410 10410 10411 10411 10412 10411 10411 10412 10412 10412 10412 10413 10414 10415 10415 10415 10415 10415 10414 10412 10411 10411 10410 10410
10390 10391 10392 10392 10393 10394 10394 10395 10395 10395 10396 10396 10397 10398 10398 10399 10400 10401 10402 10402 10403 10403 10403 10403 10403 10403 10403 10403 10403 10403 10404 10405 10405 10405 10405 10404 10403 10402 10402 10401 10401 10400
10380 10381 10382 10382 10383 10383 10384 10385 10385 10385 10386 10386 10388 10389 10390 10391 10392 10393 10394 10394 10394 10394 10394 10395 10395 10394 10394 10394 10394 10394 10394 10394 10395 10395 10395 10394 10393 10392 10392 10391 10391 10390